Gulkana, AK

7:57 PM AKDT on May 24, 2018 (GMT -0800)
Gulkana

Weather History for PAGK - July, 2013

Change the Weather History Date:

Tuesday, July 16, 2013

  Actual Average Record
Temperature  
Mean Temperature 68 °F -  
Max Temperature 81 °F 67 °F 85 °F (1993)
Min Temperature 55 °F 46 °F 37 °F (2007)
Cooling Degree Days 3    
Growing Degree Days 18 (Base 50)    
Moisture  
Dew Point 47 °F    
Average Humidity 50    
Maximum Humidity 72    
Minimum Humidity 23    
Precipitation  
Precipitation 0.00 in - - ()
Sea Level Pressure  
Sea Level Pressure 30.06 in    
Wind  
Wind Speed 5 mph (South)    
Max Wind Speed 11 mph    
Max Gust Speed -    
Visibility 10 miles    
Events      
Averages and records for this station are not official NWS values.
T = Trace of Precipitation, MM = Missing Value Source: NWS Daily Summary

Daily Weather History Graph

Daily Weather History Graph

Search for Another Location

Airport or City:

Astronomy

Jul. 16, 2013 Rise Set
Actual Time 4:26 AM AKDT 11:07 PM AKDT
Civil Twilight 2:36 AM AKDT 12:53 AM AKDT
Nautical Twilight Sun does not set Sun does not set
Astronomical Twilight Sun does not set Sun does not set
Moon 4:09 PM AKDT (7/16) 12:07 AM AKDT (7/16)
Length of Visible Light 22h 16m
Length of Day
18h 41m
First Quarter, 58% of the Moon is Illuminated
Jul 16
First Quarter
Jul 22
Full
Jul 29
Last Quarter
Aug 6
New
Aug 14
First Quarter

Hourly Weather History & Observations

Time (AKDT) Temp. Dew Point Humidity Pressure Visibility Wind Dir Wind Speed Gust Speed Precip Events Conditions
12:53 AM 61.0 °F 48.0 °F 62% 30.10 in 10.0 mi South 5.8 mph - N/A   Partly Cloudy
1:53 AM 61.0 °F 48.0 °F 62% 30.11 in 10.0 mi SW 5.8 mph - N/A   Clear
2:53 AM 59.0 °F 48.0 °F 67% 30.11 in 10.0 mi South 5.8 mph - N/A   Clear
3:53 AM 57.0 °F 46.9 °F 69% 30.12 in 10.0 mi South 3.5 mph - N/A   Clear
4:53 AM 57.0 °F 46.9 °F 69% 30.12 in 10.0 mi SSE 5.8 mph - N/A   Clear
5:53 AM 55.9 °F 46.9 °F 72% 30.12 in 10.0 mi SSE 5.8 mph - N/A   Scattered Clouds
6:03 AM 55.9 °F 46.9 °F 72% 30.14 in 10.0 mi SSE 6.9 mph - N/A   Overcast
6:53 AM 57.0 °F 48.0 °F 72% 30.12 in 10.0 mi SSE 4.6 mph - N/A   Overcast
7:53 AM 57.9 °F 48.0 °F 70% 30.13 in 10.0 mi South 4.6 mph - N/A   Overcast
8:53 AM 60.1 °F 48.9 °F 67% 30.13 in 10.0 mi SSW 4.6 mph - N/A   Overcast
9:53 AM 62.1 °F 48.9 °F 62% 30.12 in 10.0 mi SSE 4.6 mph - N/A   Overcast
10:53 AM 64.9 °F 48.0 °F 54% 30.12 in 10.0 mi SSE 4.6 mph - N/A   Mostly Cloudy
11:53 AM 68.0 °F 48.9 °F 50% 30.10 in 10.0 mi SE 4.6 mph - N/A   Mostly Cloudy
12:53 PM 71.1 °F 48.0 °F 44% 30.09 in 10.0 mi Variable 4.6 mph - N/A   Scattered Clouds
1:53 PM 75.9 °F 48.0 °F 37% 30.06 in 10.0 mi Variable 6.9 mph - N/A   Scattered Clouds
2:53 PM 75.0 °F 46.9 °F 37% 30.05 in 10.0 mi Calm Calm - N/A   Scattered Clouds
3:53 PM 78.1 °F 46.9 °F 33% 30.02 in 10.0 mi Variable 5.8 mph - N/A   Scattered Clouds
4:53 PM 79.0 °F 45.0 °F 30% 30.01 in 10.0 mi North - - N/A   Scattered Clouds
5:53 PM 78.1 °F 43.0 °F 29% 29.99 in 10.0 mi SSE 4.6 mph - N/A   Mostly Cloudy
6:53 PM 80.1 °F 42.1 °F 26% 29.97 in 10.0 mi North - - N/A   Mostly Cloudy
7:53 PM 78.1 °F 43.0 °F 29% 29.97 in 10.0 mi ESE 4.6 mph - N/A   Mostly Cloudy
8:53 PM 79.0 °F 43.0 °F 28% 29.97 in 10.0 mi NNW 3.5 mph - N/A   Mostly Cloudy
9:26 PM 73.9 °F 45.0 °F 35% 30.00 in 10.0 mi Variable 4.6 mph - N/A   Mostly Cloudy
9:53 PM 71.1 °F 45.0 °F 39% 29.98 in 10.0 mi NW 3.5 mph - N/A   Clear
10:53 PM 64.0 °F 46.9 °F 54% 29.99 in 10.0 mi West 4.6 mph - N/A   Clear
11:53 PM 61.0 °F 48.9 °F 64% 30.00 in 10.0 mi West 4.6 mph - N/A   Clear